N624JX KFRG-KBOS

Flight info

Callsign N624JX
Flight time 0h 41m
Altitude 21000
Route MERIT ROBUC3
Aircraft C750/M-SBDE3FGHRWXY/S

Departure

Time 2026-05-05 15:45
Airport Republic Airport (KFRG)

Arrival

Time 2026-05-05 16:26
Airport Boston Logan International Airport (KBOS)
Time Latitude Longitude Altitude Speed Heading
2026-05-05 15:17 40.72896 -73.41690 68 ft 0 kts 223°
2026-05-05 15:40 40.72891 -73.41700 65 ft 3 kts 247°
2026-05-05 15:40 40.72907 -73.41725 64 ft 5 kts 330°
2026-05-05 15:41 40.72939 -73.41709 68 ft 5 kts 42°
2026-05-05 15:41 40.72978 -73.41689 68 ft 8 kts 336°
2026-05-05 15:41 40.73024 -73.41751 66 ft 10 kts 312°
2026-05-05 15:41 40.73066 -73.41813 66 ft 9 kts 310°
2026-05-05 15:42 40.73107 -73.41872 65 ft 9 kts 314°
2026-05-05 15:42 40.73148 -73.41930 68 ft 8 kts 312°
2026-05-05 15:42 40.73186 -73.41985 64 ft 8 kts 312°
2026-05-05 15:42 40.73224 -73.42040 65 ft 9 kts 312°
2026-05-05 15:43 40.73263 -73.42097 68 ft 8 kts 312°
2026-05-05 15:43 40.73301 -73.42152 68 ft 8 kts 312°
2026-05-05 15:43 40.73336 -73.42204 65 ft 7 kts 312°
2026-05-05 15:43 40.73369 -73.42249 68 ft 6 kts 325°
2026-05-05 15:44 40.73400 -73.42235 68 ft 4 kts 41°
2026-05-05 15:44 40.73424 -73.42206 68 ft 4 kts 42°
2026-05-05 15:44 40.73447 -73.42178 70 ft 5 kts 45°
2026-05-05 15:44 40.73443 -73.42144 69 ft 4 kts 135°
2026-05-05 15:45 40.73363 -73.42030 66 ft 58 kts 132°
2026-05-05 15:45 40.72842 -73.41273 145 ft 142 kts 135°
2026-05-05 15:45 40.72141 -73.40281 824 ft 152 kts 142°
2026-05-05 15:45 40.71120 -73.40077 1426 ft 157 kts 207°
2026-05-05 15:46 40.70385 -73.41166 2038 ft 170 kts 242°
2026-05-05 15:46 40.70149 -73.42781 2550 ft 197 kts 273°
2026-05-05 15:46 40.70667 -73.44606 3108 ft 236 kts 302°
2026-05-05 15:46 40.72138 -73.45807 3913 ft 266 kts 341°
2026-05-05 15:47 40.74029 -73.45649 5005 ft 283 kts 11°
2026-05-05 15:47 40.75276 -73.45086 5673 ft 289 kts 17°
2026-05-05 15:47 40.77832 -73.43854 6961 ft 301 kts 17°
2026-05-05 15:47 40.79820 -73.42879 8022 ft 307 kts 17°
2026-05-05 15:48 40.81839 -73.41871 9154 ft 313 kts 16°
2026-05-05 15:48 40.83896 -73.40850 10163 ft 319 kts 15°
2026-05-05 15:48 40.86042 -73.39796 10704 ft 339 kts 15°
2026-05-05 15:48 40.88317 -73.38674 11195 ft 358 kts 15°
2026-05-05 15:49 40.90702 -73.37487 11696 ft 374 kts 15°
2026-05-05 15:49 40.93180 -73.36253 12223 ft 387 kts 15°
2026-05-05 15:49 40.95735 -73.34985 12839 ft 395 kts 15°
2026-05-05 15:49 40.98302 -73.33704 13761 ft 394 kts 15°
2026-05-05 15:50 41.00863 -73.32429 14620 ft 392 kts 15°
2026-05-05 15:50 41.03418 -73.31161 15385 ft 394 kts 15°
2026-05-05 15:50 41.06033 -73.29862 16100 ft 398 kts 15°
2026-05-05 15:50 41.08630 -73.28565 16867 ft 401 kts 15°
2026-05-05 15:51 41.11250 -73.27256 17633 ft 404 kts 15°
2026-05-05 15:51 41.13897 -73.25935 18390 ft 408 kts 16°
2026-05-05 15:51 41.16562 -73.24603 19102 ft 411 kts 16°
2026-05-05 15:51 41.19251 -73.23258 19795 ft 416 kts 17°
2026-05-05 15:52 41.21972 -73.21895 20529 ft 419 kts 17°
2026-05-05 15:52 41.24731 -73.20514 20950 ft 432 kts 17°
2026-05-05 15:52 41.27615 -73.19072 20951 ft 453 kts 17°
2026-05-05 15:52 41.30500 -73.17203 20934 ft 469 kts 28°
2026-05-05 15:53 41.33170 -73.14641 20933 ft 477 kts 38°
2026-05-05 15:53 41.35513 -73.11476 20941 ft 483 kts 48°
2026-05-05 15:53 41.37436 -73.07793 20944 ft 485 kts 59°
2026-05-05 15:53 41.38863 -73.03715 20944 ft 487 kts 69°
2026-05-05 15:54 41.39748 -72.99361 20946 ft 487 kts 79°
2026-05-05 15:54 41.40237 -72.94897 20942 ft 488 kts 83°
2026-05-05 15:54 41.40710 -72.90435 20952 ft 486 kts 83°
2026-05-05 15:54 41.41192 -72.85987 20956 ft 486 kts 82°
2026-05-05 15:55 41.41670 -72.81529 20959 ft 486 kts 83°
2026-05-05 15:55 41.42138 -72.77070 20958 ft 486 kts 83°
2026-05-05 15:55 41.42606 -72.72613 20959 ft 486 kts 83°
2026-05-05 15:55 41.43077 -72.68151 20964 ft 485 kts 83°
2026-05-05 15:56 41.43547 -72.63695 20965 ft 485 kts 83°
2026-05-05 15:56 41.44011 -72.59235 20956 ft 486 kts 83°
2026-05-05 15:56 41.44474 -72.54776 20955 ft 486 kts 83°
2026-05-05 15:56 41.44937 -72.50318 20956 ft 485 kts 83°
2026-05-05 15:57 41.45396 -72.45868 20955 ft 485 kts 83°
2026-05-05 15:57 41.45854 -72.41411 20955 ft 485 kts 83°
2026-05-05 15:57 41.46310 -72.36957 20951 ft 485 kts 83°
2026-05-05 15:57 41.46765 -72.32503 20948 ft 484 kts 83°
2026-05-05 15:58 41.47218 -72.28043 20944 ft 485 kts 83°
2026-05-05 15:58 41.47710 -72.23599 20931 ft 485 kts 80°
2026-05-05 15:58 41.48648 -72.19281 20923 ft 486 kts 70°
2026-05-05 15:58 41.50043 -72.15186 20926 ft 486 kts 64°
2026-05-05 15:59 41.51543 -72.11141 20939 ft 486 kts 64°
2026-05-05 15:59 41.53015 -72.07085 20942 ft 486 kts 64°
2026-05-05 15:59 41.54485 -72.03019 20942 ft 486 kts 64°
2026-05-05 15:59 41.55924 -71.98953 20898 ft 476 kts 67°
2026-05-05 16:00 41.57153 -71.94886 20585 ft 472 kts 69°
2026-05-05 16:00 41.58349 -71.90814 20169 ft 470 kts 69°
2026-05-05 16:00 41.59549 -71.86793 19769 ft 465 kts 69°
2026-05-05 16:00 41.60753 -71.82796 19374 ft 463 kts 69°
2026-05-05 16:01 41.61931 -71.78809 18971 ft 459 kts 69°
2026-05-05 16:01 41.63050 -71.74978 18576 ft 425 kts 69°
2026-05-05 16:01 41.64094 -71.71433 18210 ft 396 kts 69°
2026-05-05 16:01 41.65077 -71.68109 17841 ft 374 kts 69°
2026-05-05 16:02 41.66016 -71.64916 17515 ft 367 kts 69°
2026-05-05 16:02 41.66945 -71.61746 17198 ft 366 kts 69°
2026-05-05 16:02 41.67871 -71.58585 16938 ft 364 kts 69°
2026-05-05 16:02 41.68795 -71.55433 16654 ft 364 kts 69°
2026-05-05 16:03 41.69716 -71.52287 16345 ft 363 kts 69°
2026-05-05 16:03 41.70633 -71.49148 16033 ft 361 kts 69°
2026-05-05 16:03 41.71545 -71.46020 15718 ft 361 kts 69°
2026-05-05 16:03 41.72492 -71.42919 15385 ft 359 kts 64°
2026-05-05 16:04 41.73717 -71.40008 15077 ft 358 kts 59°
2026-05-05 16:04 41.74972 -71.37132 14772 ft 358 kts 59°
2026-05-05 16:04 41.76204 -71.34251 14462 ft 356 kts 60°
2026-05-05 16:04 41.77421 -71.31373 14149 ft 355 kts 60°
2026-05-05 16:05 41.78644 -71.28502 13838 ft 354 kts 59°
2026-05-05 16:05 41.79867 -71.25646 13502 ft 353 kts 59°
2026-05-05 16:05 41.81082 -71.22798 13187 ft 352 kts 59°
2026-05-05 16:05 41.82291 -71.19953 12871 ft 351 kts 59°
2026-05-05 16:06 41.83496 -71.17113 12565 ft 350 kts 59°
2026-05-05 16:06 41.84702 -71.14276 12258 ft 350 kts 60°
2026-05-05 16:06 41.85881 -71.11498 12041 ft 335 kts 60°
2026-05-05 16:06 41.87050 -71.08789 12039 ft 337 kts 59°
2026-05-05 16:07 41.88233 -71.06080 12042 ft 337 kts 59°
2026-05-05 16:07 41.89411 -71.03358 12045 ft 337 kts 60°
2026-05-05 16:07 41.90583 -71.00631 12049 ft 337 kts 60°
2026-05-05 16:07 41.91360 -70.98825 12048 ft 338 kts 60°
2026-05-05 16:08 41.92935 -70.95172 12005 ft 339 kts 60°
2026-05-05 16:08 41.93716 -70.93360 11872 ft 338 kts 60°
2026-05-05 16:08 41.94893 -70.90626 11604 ft 338 kts 60°
2026-05-05 16:08 41.96066 -70.87894 11303 ft 337 kts 60°
2026-05-05 16:09 41.97227 -70.85186 11019 ft 332 kts 59°
2026-05-05 16:09 41.98380 -70.82501 10734 ft 332 kts 60°
2026-05-05 16:09 41.99545 -70.79783 10441 ft 331 kts 60°
2026-05-05 16:09 42.00697 -70.77101 10158 ft 332 kts 59°
2026-05-05 16:10 42.02098 -70.74643 9803 ft 331 kts 46°
2026-05-05 16:10 42.03640 -70.72393 9490 ft 332 kts 45°
2026-05-05 16:10 42.05197 -70.70117 9178 ft 330 kts 46°
2026-05-05 16:10 42.06715 -70.67821 8870 ft 327 kts 47°
2026-05-05 16:11 42.08242 -70.65505 8551 ft 326 kts 46°
2026-05-05 16:11 42.13630 -70.60802 7618 ft 305 kts
2026-05-05 16:12 42.15720 -70.60248 7364 ft 307 kts
2026-05-05 16:12 42.19901 -70.59096 6793 ft 306 kts
2026-05-05 16:13 42.26113 -70.57358 5896 ft 302 kts
2026-05-05 16:13 42.28132 -70.56792 5610 ft 299 kts
2026-05-05 16:13 42.30191 -70.56228 5322 ft 296 kts
2026-05-05 16:14 42.33886 -70.57364 4994 ft 264 kts 317°
2026-05-05 16:14 42.36513 -70.60706 5024 ft 260 kts 308°
2026-05-05 16:15 42.39113 -70.64101 5012 ft 260 kts 308°
2026-05-05 16:15 42.41690 -70.67497 5003 ft 260 kts 308°
2026-05-05 16:16 42.44283 -70.70911 4993 ft 260 kts 308°
2026-05-05 16:16 42.46869 -70.74317 4814 ft 251 kts 308°
2026-05-05 16:17 42.49216 -70.77402 4369 ft 222 kts 307°
2026-05-05 16:17 42.50303 -70.78847 4145 ft 217 kts 307°
2026-05-05 16:18 42.52788 -70.81213 3628 ft 235 kts 338°
2026-05-05 16:18 42.54445 -70.81210 3361 ft 247 kts
2026-05-05 16:18 42.57643 -70.80404 2965 ft 209 kts 333°
2026-05-05 16:19 42.58635 -70.81573 2947 ft 178 kts 297°
2026-05-05 16:19 42.59288 -70.82974 2995 ft 177 kts 292°
2026-05-05 16:19 42.58673 -70.85710 3012 ft 164 kts 230°
2026-05-05 16:20 42.57221 -70.88005 3003 ft 157 kts 231°
2026-05-05 16:20 42.55766 -70.90211 2970 ft 157 kts 224°
2026-05-05 16:21 42.53787 -70.91421 2983 ft 155 kts 209°
2026-05-05 16:22 42.50864 -70.93315 2922 ft 167 kts 209°
2026-05-05 16:22 42.48700 -70.94550 2356 ft 156 kts 205°
2026-05-05 16:23 42.46896 -70.95456 1986 ft 122 kts 203°
2026-05-05 16:23 42.46128 -70.95831 1825 ft 113 kts 204°
2026-05-05 16:23 42.44700 -70.96523 1559 ft 110 kts 200°
2026-05-05 16:24 42.43973 -70.96879 1424 ft 112 kts 202°
2026-05-05 16:24 42.43227 -70.97240 1270 ft 115 kts 200°
2026-05-05 16:24 42.41725 -70.97973 952 ft 113 kts 202°
2026-05-05 16:25 42.40992 -70.98328 804 ft 111 kts 200°
2026-05-05 16:25 42.39558 -70.99026 526 ft 109 kts 200°
2026-05-05 16:25 42.38846 -70.99361 373 ft 104 kts 202°
2026-05-05 16:26 42.37510 -71.00022 95 ft 109 kts 200°
2026-05-05 16:26 42.36309 -71.00602 23 ft 36 kts 199°
2026-05-05 16:27 42.36181 -71.00671 22 ft 14 kts 219°
2026-05-05 16:27 42.36145 -71.00777 22 ft 13 kts 272°
2026-05-05 16:27 42.36173 -71.00885 23 ft 12 kts 294°
2026-05-05 16:27 42.36208 -71.00991 22 ft 12 kts 294°
2026-05-05 16:28 42.36243 -71.01095 22 ft 12 kts 293°
2026-05-05 16:28 42.36281 -71.01195 22 ft 12 kts 302°
2026-05-05 16:28 42.36324 -71.01291 22 ft 11 kts 301°
2026-05-05 16:28 42.36384 -71.01311 22 ft 10 kts 21°
2026-05-05 16:29 42.36451 -71.01279 23 ft 11 kts 19°
2026-05-05 16:29 42.36529 -71.01240 22 ft 13 kts 20°
2026-05-05 16:29 42.36614 -71.01200 22 ft 13 kts 19°
2026-05-05 16:29 42.36698 -71.01159 22 ft 13 kts 19°
2026-05-05 16:30 42.36783 -71.01148 22 ft 12 kts 340°
2026-05-05 16:30 42.36847 -71.01224 22 ft 12 kts 315°
2026-05-05 16:30 42.36907 -71.01304 22 ft 12 kts 316°
2026-05-05 16:30 42.36967 -71.01383 23 ft 12 kts 315°
2026-05-05 16:31 42.37026 -71.01462 22 ft 12 kts 315°
2026-05-05 16:31 42.37088 -71.01546 22 ft 14 kts 315°
2026-05-05 16:31 42.37154 -71.01635 23 ft 13 kts 315°
2026-05-05 16:31 42.37221 -71.01724 22 ft 13 kts 315°
2026-05-05 16:32 42.37286 -71.01811 22 ft 13 kts 315°
2026-05-05 16:32 42.37352 -71.01899 22 ft 13 kts 315°
2026-05-05 16:32 42.37414 -71.01982 22 ft 9 kts 315°
2026-05-05 16:32 42.37451 -71.02039 22 ft 7 kts 287°
2026-05-05 16:33 42.37432 -71.02090 22 ft 6 kts 224°
2026-05-05 16:33 42.37413 -71.02120 25 ft 2 kts 259°
2026-05-05 16:33 42.37421 -71.02137 22 ft 2 kts 313°
2026-05-05 16:33 42.37432 -71.02151 24 ft 2 kts 315°
2026-05-05 16:34 42.37433 -71.02153 24 ft 0 kts 315°